This is the latest recevied weather packets stored in our database for station/object W7TJC. If no packets are shown the sender has not sent any weather packets the latest 10 day(s).
| Time | Temp. | Humidity | Pressure | Rain* | Wind** | Luminosity | Snow |
|---|---|---|---|---|---|---|---|
| 1778097556 | 12.78° C | 80% | 1021.6 hPa | 0 mm | - | 55 W/m² | - |
| 1778097253 | 12.78° C | 79% | 1021.8 hPa | 0 mm | - | 90 W/m² | - |
| 1778096949 | 12.78° C | 79% | 1021.6 hPa | 0 mm | - | 147 W/m² | - |
| 1778096646 | 12.78° C | 80% | 1021.5 hPa | 0 mm | - | 141 W/m² | - |
| 1778096344 | 12.78° C | 80% | 1021.5 hPa | 0 mm | - | 92 W/m² | - |
| 1778096040 | 12.78° C | 80% | 1021.6 hPa | 0 mm | - | 95 W/m² | - |
| 1778095737 | 12.78° C | 80% | 1021.6 hPa | 0 mm | - | 115 W/m² | - |
| 1778095434 | 12.78° C | 81% | 1021.5 hPa | 0 mm | - | 97 W/m² | - |
| 1778095131 | 12.22° C | 81% | 1021.4 hPa | 0 mm | - | 98 W/m² | - |
| 1778094827 | 12.22° C | 81% | 1021.4 hPa | 0 mm | - | 100 W/m² | - |
| 1778094524 | 12.78° C | 80% | 1021.5 hPa | 0 mm | - | 84 W/m² | - |
| 1778094220 | 12.78° C | 80% | 1021.5 hPa | 0 mm | - | 302 W/m² | - |
| 1778093917 | 12.78° C | 81% | 1021.5 hPa | 0 mm | - | 110 W/m² | - |
| 1778093614 | 12.22° C | 80% | 1021.4 hPa | 0 mm | - | 96 W/m² | - |
| 1778093311 | 12.22° C | 81% | 1021.4 hPa | 0 mm | - | 123 W/m² | - |
| 1778093008 | 12.22° C | 80% | 1021.3 hPa | 0 mm | - | 85 W/m² | - |
| 1778092706 | 12.22° C | 80% | 1021.4 hPa | 0 mm | - | 83 W/m² | - |
| 1778092401 | 12.22° C | 81% | 1021.2 hPa | 0 mm | - | 103 W/m² | - |
| 1778092098 | 12.22° C | 80% | 1021.4 hPa | 0 mm | - | 100 W/m² | - |
| 1778091796 | 12.22° C | 80% | 1021.2 hPa | 0 mm | - | 78 W/m² | - |
| 1778091493 | 12.22° C | 81% | 1021.5 hPa | 0 mm | - | 102 W/m² | - |
| 1778091191 | 12.22° C | 81% | 1021.5 hPa | 0 mm | - | 67 W/m² | - |
| 1778090888 | 12.22° C | 82% | 1021.3 hPa | 0 mm | - | 98 W/m² | - |
| 1778090583 | 12.22° C | 82% | 1021.3 hPa | 0 mm | - | 72 W/m² | - |
| 1778090280 | 12.22° C | 83% | 1021.4 hPa | 0 mm | - | 62 W/m² | - |
* Rain latest hour (hover to see other rain measurements)
** Current wind speed in m/s (hover to see current wind gust speed)